TimeCDT,TemperatureF,Dew PointF,Humidity,Sea Level PressureIn,VisibilityMPH,Wind Direction,Wind SpeedMPH,Gust SpeedMPH,PrecipitationIn,Events,Conditions,WindDirDegrees,DateUTC
12:53 AM,75.0,71.1,87,29.78,10.0,SE,15.0,-,N/A,,Clear,140,2014-04-03 05:53:00
1:53 AM,73.9,71.1,91,29.76,10.0,SE,12.7,-,N/A,,Clear,140,2014-04-03 06:53:00
2:53 AM,73.9,70.0,87,29.74,10.0,SE,11.5,-,N/A,,Clear,130,2014-04-03 07:53:00
3:36 AM,73.4,71.6,94,29.73,10.0,SSE,11.5,-,N/A,,Mostly Cloudy,150,2014-04-03 08:36:00
3:53 AM,73.9,71.1,91,29.73,10.0,SSE,13.8,21.9,N/A,,Overcast,150,2014-04-03 08:53:00
4:53 AM,75.0,71.1,87,29.72,10.0,SE,16.1,-,N/A,,Overcast,140,2014-04-03 09:53:00
5:53 AM,73.9,70.0,87,29.72,10.0,SSE,15.0,24.2,N/A,,Overcast,150,2014-04-03 10:53:00
6:53 AM,73.9,70.0,87,29.74,10.0,SSE,10.4,19.6,N/A,,Overcast,150,2014-04-03 11:53:00
7:53 AM,75.0,70.0,84,29.75,10.0,SSE,13.8,-,N/A,,Overcast,150,2014-04-03 12:53:00
8:28 AM,75.2,71.6,89,29.75,9.0,SSE,13.8,26.5,N/A,,Overcast,150,2014-04-03 13:28:00
8:53 AM,75.9,71.1,85,29.75,9.0,SSE,16.1,23.0,N/A,,Overcast,150,2014-04-03 13:53:00
9:49 AM,77.0,71.6,83,29.75,9.0,SSE,18.4,28.8,N/A,,Overcast,160,2014-04-03 14:49:00
9:53 AM,78.1,71.1,79,29.75,9.0,SSE,19.6,28.8,N/A,,Overcast,160,2014-04-03 14:53:00
10:53 AM,81.0,72.0,74,29.74,10.0,SSE,18.4,29.9,N/A,,Mostly Cloudy,160,2014-04-03 15:53:00
11:53 AM,84.0,72.0,67,29.74,10.0,SSE,18.4,-,N/A,,Mostly Cloudy,160,2014-04-03 16:53:00
12:35 PM,86.0,71.6,62,29.73,10.0,South,13.8,-,N/A,,Mostly Cloudy,170,2014-04-03 17:35:00
12:53 PM,87.1,72.0,61,29.72,10.0,South,12.7,20.7,N/A,,Mostly Cloudy,170,2014-04-03 17:53:00
1:53 PM,90.0,71.1,54,29.69,10.0,SSW,5.8,-,N/A,,Clear,210,2014-04-03 18:53:00
2:53 PM,93.0,68.0,44,29.66,10.0,SSW,6.9,-,N/A,,Clear,200,2014-04-03 19:53:00
3:53 PM,93.9,68.0,43,29.64,10.0,South,6.9,-,N/A,,Clear,170,2014-04-03 20:53:00
4:53 PM,99.0,63.0,30,29.62,10.0,Variable,4.6,-,N/A,,Clear,0,2014-04-03 21:53:00
5:53 PM,93.0,73.0,52,29.62,10.0,SE,13.8,-,N/A,,Clear,130,2014-04-03 22:53:00
6:53 PM,88.0,73.0,61,29.64,10.0,SE,15.0,-,N/A,,Clear,130,2014-04-03 23:53:00
7:53 PM,82.9,72.0,69,29.66,10.0,SE,18.4,-,N/A,,Clear,130,2014-04-04 00:53:00
8:53 PM,79.0,73.0,82,29.69,10.0,SE,16.1,-,N/A,,Clear,140,2014-04-04 01:53:00
10:53 PM,77.0,72.0,84,29.74,10.0,SSE,16.1,-,N/A,,Overcast,150,2014-04-04 03:53:00
11:53 PM,77.0,71.1,82,29.74,10.0,SSE,13.8,-,N/A,,Overcast,160,2014-04-04 04:53:00